Вернуться в каталог

DELTA 1 R/B

АктивенSSO
NORAD 3616·ROCKET BODY·🇺🇸 United States

Запущен Dec 15, 1968 с Vandenberg Space Force Base

Loading…

Ближайшие Пролёты (ближайшие 24 часа)

TLE

СвежийSource: Space-Track

Эпоха: Sep 14, 2026, 19:38 UTC

1 03616U 68114B   26257.81848030 -.00000041  00000-0  20569-4 0  9992
2 03616 101.6922 202.3960 0013106 211.0552 175.4122 12.51403570639815

Отслеживайте DELTA 1 R/B в реальном времени с AllMySat

Download on the App Store